Regional Weather Roundup
Issued by NWS

Home | Current Version | Previous Version | Text Only | Print | Product List | Glossary Off
Versions: 1 2 3 4 5 6 7 8 9 10 11 12 13 14 15 16 17 18 19 20 21 22 23 24 25 26 27 28 29 30 31 32 33 34 35 36 37 38 39 40 41 42 43 44 45

000
ASUS45 KSLC 251310
RWRUT

UTAH REGIONAL WEATHER ROUNDUP
NATIONAL WEATHER SERVICE SALT LAKE CITY UT
600 AM MST THU DEC 25 2014

UTZ001>011-023>025-251400-

NORTHERN UTAH

CITY           SKY/WX    TMP DP  RH WIND       PRES   REMARKS
BRIGHAM CITY   CLOUDY    32  29  88 SW3       29.53R
HILL AFB       LGT SNOW  28  28 100 S9        29.53R FOG     WCI  20
LOGAN          LGT SNOW  29  26  89 SE3       29.51R FOG
OGDEN          FLURRIES  30  28  92 S7        29.52R WCI  23
PROVO AIRPORT  CLOUDY    30  25  80 NW21G29   29.52R WCI  17
SALT LAKE CITY LGT SNOW  31  25  78 W16G25    29.57R WCI  20
VERNAL         MOCLDY    24  21  88 E3        29.50F
WENDOVER       CLOUDY    30  16  55 NW23G31   29.61S WCI  17
HEBER CITY     LGT SNOW  30  28  93 E6        29.45R WCI  24
WEST JORDAN    CLOUDY    30  28  93 W7        29.56R WCI  23

$$

UTZ012>022-026-027-251400-

SOUTHERN/CENTRAL UTAH

CITY           SKY/WX    TMP DP  RH WIND       PRES   REMARKS
BLANDING       CLOUDY    30  18  61 NE3       29.63F
BRYCE CANYON   CLOUDY    23  20  88 SE9       29.49F WCI  13
CEDAR CITY     LGT SNOW  29  27  92 SW13      29.56R FOG     WCI  19
DELTA          CLOUDY    29  27  92 N12       29.57R WCI  19
MILFORD        SNOW      30  27  88 NW10      29.57R VSB 1/2 WCI  21
MOAB/CYNLANDS  CLOUDY    29  21  72 NW7       29.49F WCI  22
PRICE          FLURRIES  24  20  84 CALM      29.48F
ST GEORGE      CLOUDY    37  28  70 CALM      29.68R
KANAB          CLOUDY    30  30 100 S13       29.64F WCI  20

$$

REGIONAL REPORTS     COLORADO/ARIZONA

CITY           SKY/WX    TMP DP  RH WIND       PRES   REMARKS
CRAIG, CO      CLOUDY    28  25  88 SE6       29.50S WCI  22
GRAND JUNCTION CLOUDY    28  22  78 CALM      29.52S
RIFLE          FLURRIES  25  20  81 CALM      29.56F
MONTROSE       MOCLDY    30  18  60 NW12      29.54R WCI  20
CORTEZ         CLOUDY    37  16  42 S9        29.60S WCI  30
PAGE, AZ       CLOUDY    38  18  44 NW9       29.58R WCI  31
GRAND CANYON   LGT SNOW  30  15  53 SW14G30   29.64R WCI  19
KINGMAN        CLOUDY    47  20  34 SW20      29.68S
FLAGSTAFF      CLOUDY    31   9  39 SW20G25   29.67S WCI  19

$$

REGIONAL REPORTS    NEVADA/IDAHO/WYOMING

CITY           SKY/WX    TMP DP  RH WIND       PRES   REMARKS
LAS VEGAS, NV  MOCLDY    49  18  29 N17G30    29.67R
ELY            CLOUDY    21  13  71 NW23G30   29.70R WCI   5
ELKO           LGT SNOW  25  19  78 W7        29.77S WCI  17
POCATELLO, ID  LGT SNOW  28  28 100 SW20      29.51R FOG     WCI  15
EVANSTON, WY   LGT SNOW  23  21  92 SW20      29.42R FOG     WCI   8
ROCK SPRINGS   LGT SNOW  25  22  88 S3        29.41R FOG
KEMMERER       FLURRIES  27  23  86 W20G26    29.39R WCI  13

$$



USA.gov is the U.S. government's official web portal to all federal, state and local government web resources and services.